Location: Unspecified
(0.0000°N, 0.0000°E)
Time: 00:06:34
(UTC+00:00)

Transit 2A Rocket - All Passes

Search period start: 29 May 2022 00:00
Search period end: 08 June 2022 00:00
Orbit: 592 x 909 km, 66.7° (Epoch: 28 May)

Date Brightness Start Highest point End Pass type
(mag) Time Alt. Az. Time Alt. Az. Time Alt. Az.
29 May - 11:08:31 10° SSW 11:14:33 75° WNW 11:20:14 10° NNE daylight
29 May - 21:58:51 10° NE 22:01:15 15° ENE 22:03:43 10° ESE night (unlit)
29 May - 23:40:00 10° WNW 23:43:27 23° WSW 23:47:05 10° SSW night (unlit)
30 May - 10:25:53 10° S 10:31:48 55° ESE 10:37:23 10° NNE daylight
30 May - 12:12:18 10° W 12:14:03 11° WNW 12:15:46 10° NW daylight
30 May - 22:56:25 10° NNW 23:00:39 54° WSW 23:05:11 10° S night (unlit)
31 May - 09:43:56 10° SSE 09:48:59 28° ESE 09:53:49 10° NE daylight
31 May - 11:26:38 10° WSW 11:31:19 24° WNW 11:35:49 10° NNW daylight
31 May - 22:13:40 10° N 22:17:56 60° ENE 22:22:28 10° SSE night (unlit)
01 Jun - 09:03:14 10° SE 09:06:07 14° ESE 09:08:57 10° E daylight
01 Jun - 10:42:52 10° SW 10:48:37 48° WNW 10:54:03 10° N daylight
01 Jun - 21:31:42 10° NNE 21:35:15 25° ENE 21:38:58 10° SE night (unlit)
01 Jun - 23:15:18 10° W 23:17:33 14° WSW 23:19:52 10° SW night (unlit)
02 Jun - 09:59:50 10° SSW 10:05:53 85° ESE 10:11:35 10° NNE daylight
02 Jun - 20:51:58 10° ENE 20:52:34 10° ENE 20:53:10 10° E night (unlit)
02 Jun - 22:30:50 10° NW 22:34:43 31° WSW 22:38:51 10° S night (unlit)
03 Jun - 09:17:27 10° S 09:23:06 42° ESE 09:28:29 10° NE daylight
03 Jun - 11:02:05 10° WSW 11:05:23 15° WNW 11:08:35 10° NW daylight
03 Jun - 21:47:36 10° NNW 21:51:57 77° WSW 21:56:36 10° SSE night (unlit)
04 Jun - 08:35:50 10° SSE 08:40:17 21° ESE 08:44:33 10° ENE daylight
04 Jun - 10:17:29 10° SW 10:22:40 31° WNW 10:27:35 10° N daylight
04 Jun - 21:05:07 10° N 21:09:14 42° ENE 21:13:37 10° SE night (unlit)
05 Jun - 09:34:02 10° SSW 09:39:58 63° WNW 09:45:32 10° N daylight
05 Jun - 20:23:33 10° NNE 20:26:33 18° ENE 20:29:40 10° ESE visible
05 Jun - 22:05:39 10° WNW 22:08:48 19° WSW 22:12:05 10° SSW night (unlit)
06 Jun - 08:51:14 10° S 08:57:13 65° ESE 09:02:49 10° NNE daylight
06 Jun - 21:21:48 10° NW 21:25:59 43° WSW 21:30:27 10° S visible
07 Jun - 08:09:06 10° S 08:14:24 32° ESE 08:19:26 10° NE daylight
07 Jun - 09:52:31 10° WSW 09:56:42 20° WNW 10:00:44 10° NNW daylight
07 Jun - 20:38:52 10° NNW 20:43:14 76° ENE 20:47:54 10° SSE visible
